Back to catalog

METEOR 2-1

AliveWeatherPO
NORAD 8026·PAYLOAD·🇷🇺 Russia

Launched Jul 11, 1975 from Plesetsk Cosmodrome

Loading…

Next Passes (next 24 hours)

TLE

FreshSource: Space-Track

Epoch: Sep 14, 2026, 13:22 UTC

1 08026U 75064A   26257.55696465  .00000076  00000-0  35271-4 0  9991
2 08026  81.2779 296.5127 0021478 329.7699  30.2231 14.10825950631940

Track METEOR 2-1 in real time with AllMySat

Download on the App Store